RYR6826 LZIB-EPGD

Flight info

Callsign RYR6826
Flight time N/A
Altitude 35000
Route BERVA P10 MAVOR DCT UPLAV DCT BIBKA N133 GRUDA Z95 OSLOG
Aircraft B738/M-SDE3FGILRWY/SB1

Departure

Time 2026-05-07 16:48
Airport M. R. Štefánik Airport (LZIB)

Arrival

Time N/A
Airport Gdańsk Lech Wałęsa Airport (EPGD)
Time Latitude Longitude Altitude Speed Heading
2026-05-07 16:26 48.16886 17.20048 431 ft 0 kts 314°
2026-05-07 16:37 48.16885 17.20049 419 ft 2 kts 314°
2026-05-07 16:38 48.16871 17.20079 421 ft 4 kts 286°
2026-05-07 16:38 48.16869 17.20117 422 ft 4 kts 256°
2026-05-07 16:38 48.16879 17.20154 417 ft 4 kts 234°
2026-05-07 16:38 48.16890 17.20172 423 ft 0 kts 224°
2026-05-07 16:42 48.16876 17.20155 417 ft 6 kts 210°
2026-05-07 16:43 48.16840 17.20171 427 ft 6 kts 139°
2026-05-07 16:43 48.16808 17.20219 427 ft 8 kts 136°
2026-05-07 16:43 48.16758 17.20292 426 ft 12 kts 135°
2026-05-07 16:43 48.16704 17.20357 424 ft 9 kts 172°
2026-05-07 16:44 48.16653 17.20305 422 ft 9 kts 221°
2026-05-07 16:44 48.16608 17.20247 424 ft 9 kts 219°
2026-05-07 16:44 48.16563 17.20191 432 ft 9 kts 220°
2026-05-07 16:44 48.16507 17.20120 424 ft 14 kts 220°
2026-05-07 16:45 48.16427 17.20016 427 ft 16 kts 221°
2026-05-07 16:45 48.16346 17.19914 426 ft 15 kts 220°
2026-05-07 16:45 48.16277 17.19828 425 ft 9 kts 219°
2026-05-07 16:45 48.16222 17.19793 434 ft 9 kts 187°
2026-05-07 16:46 48.16168 17.19824 434 ft 9 kts 138°
2026-05-07 16:46 48.16128 17.19890 426 ft 9 kts 131°
2026-05-07 16:46 48.16106 17.19973 434 ft 10 kts 70°
2026-05-07 16:46 48.16118 17.19996 431 ft 0 kts 45°
2026-05-07 16:47 48.16118 17.19997 431 ft 1 kts 45°
2026-05-07 16:47 48.16248 17.20186 432 ft 63 kts 43°
2026-05-07 16:47 48.16747 17.20903 423 ft 133 kts 44°
2026-05-07 16:47 48.17546 17.22066 518 ft 182 kts 46°
2026-05-07 16:48 48.18508 17.23330 1393 ft 184 kts 41°
2026-05-07 16:48 48.19518 17.24723 1895 ft 212 kts 43°
2026-05-07 16:48 48.20631 17.26334 2387 ft 230 kts 47°
2026-05-07 16:48 48.21848 17.28088 2644 ft 255 kts 46°
2026-05-07 16:49 48.23253 17.29857 2976 ft 277 kts 37°
2026-05-07 16:49 48.24903 17.31518 3533 ft 290 kts 35°
2026-05-07 16:49 48.26579 17.33227 4429 ft 293 kts 36°
2026-05-07 16:49 48.28263 17.34978 5236 ft 298 kts 36°
2026-05-07 16:50 48.29954 17.36742 6071 ft 300 kts 33°
2026-05-07 16:50 48.31752 17.38426 6931 ft 302 kts 30°
2026-05-07 16:50 48.33546 17.40009 7762 ft 303 kts 29°
2026-05-07 16:50 48.35510 17.41137 8527 ft 304 kts
2026-05-07 16:51 48.37597 17.41701 9394 ft 304 kts
2026-05-07 16:51 48.39689 17.42208 10170 ft 307 kts
2026-05-07 16:51 48.41858 17.42736 10500 ft 328 kts
2026-05-07 16:51 48.44184 17.43321 10829 ft 346 kts
2026-05-07 16:52 48.46577 17.43947 11459 ft 352 kts
2026-05-07 16:52 48.49006 17.44601 12238 ft 355 kts